Flag for United Kingdom Past Weather in Newport (Isle of Wight), England, United Kingdom — Yesterday and Last 2 Weeks

Now
59 °F

Cool.


Feels Like: 59 °F
Forecast: 53 / 67 °F
Wind: 5 mph from Southeast

Location: Saint Catherine's Point

Current Time: May 27, 2016 at 3:25:03 PM

Latest Report: May 27, 2016 at 2:00 PM


Visibility: N/A

Pressure: 30.01 "Hg

Humidity: 79%

Dew Point: 53 °F

Location of Newport (Isle of Wight)Location

Past Weather in Newport (Isle of Wight) — Graph

°F

Newport (Isle of Wight) Temperature Yesterday

Maximum temperature yesterday: 60 °F (at 5:00 PM)
Minimum temperature yesterday: 47 °F (at 5:00 AM)
Average temperature yesterday: 55 °F

High & Low Weather Summary for the Past Weeks

 TemperatureHumidityPressure
High69 °F (May 13, 4:00 PM)100% (May 19, 9:00 PM)30.23 "Hg (May 19, 9:00 PM)
Low45 °F (May 14, 6:00 AM)55% (May 13, 3:00 PM)29.56 "Hg (May 12, 2:00 PM)
Average54 °F85%29.96 "Hg
* Reported May 12 2:00 PM — May 27 2:00 PM, Newport (Isle of Wight), Weather by CustomWeather, © 2016

Note: Actual official high and low records may vary slightly from our data, if they occured in-between our weather recording intervals... More about our weather records

Advertising

Newport (Isle of Wight) Weather History for the Previous 24 Hours

Scroll right to see more
 ConditionsComfort  
Time TempWeatherWind HumidityBarometerVisibility
2:00 PM
Fri, May 27
59 °FCool.5 mph79%30.01 "HgN/A
1:00 PM62 °FCool.7 mph81%30.01 "HgN/A
12:00 PM62 °FCool.9 mph81%30.01 "HgN/A
11:00 AM62 °FCool.16 mph74%30.00 "HgN/A
10:00 AM59 °FCool.17 mph75%29.99 "HgN/A
9:00 AM60 °FCool.13 mph73%29.98 "HgN/A
8:00 AM58 °FCool.14 mph78%29.98 "HgN/A
7:00 AM55 °FCool.14 mph82%29.98 "HgN/A
6:00 AM54 °FCool.14 mph78%29.96 "HgN/A
5:00 AM54 °FCool.13 mph91%29.96 "HgN/A
4:00 AM54 °FCool.12 mph84%29.97 "HgN/A
3:00 AM55 °FCool.14 mph85%29.98 "HgN/A
2:00 AM54 °FCool.15 mph87%29.98 "HgN/A
1:00 AM55 °FCool.9 mph85%29.97 "HgN/A
12:00 AM54 °FCool.7 mph86%29.98 "HgN/A
11:00 PM
Thu, May 26
55 °FCool.3 mph90%29.99 "HgN/A
10:00 PM55 °FCool.12 mph84%29.97 "HgN/A
9:00 PM57 °FCool.9 mph72%29.96 "HgN/A
8:00 PM59 °FCool.6 mph71%29.96 "HgN/A
7:00 PM58 °FCool.8 mph75%29.96 "HgN/A
6:00 PM60 °FCool.12 mph76%29.96 "HgN/A
5:00 PM60 °FCool.15 mph77%29.96 "HgN/A
4:00 PM60 °FCool.14 mph80%29.97 "HgN/A
3:00 PM60 °FCool.15 mph78%29.98 "HgN/A
Weather by CustomWeather, © 2016

See weather overviewHow to use our weather pages